This is the latest recevied weather packets stored in our database for station/object K5UBE. If no packets are shown the sender has not sent any weather packets the latest 10 day(s).
| Time | Temp. | Humidity | Pressure | Rain* | Wind** | Luminosity | Snow |
|---|---|---|---|---|---|---|---|
| 1777831006 | 21.11° C | 33% | 1021.9 hPa | 0 mm | - | - | - |
| 1777830704 | 21.67° C | 33% | 1022 hPa | 0 mm | - | - | - |
| 1777830400 | 20.56° C | 34% | 1022 hPa | 0 mm | - | - | - |
| 1777830097 | 21.11° C | 34% | 1022.2 hPa | 0 mm | - | - | - |
| 1777829792 | 20.56° C | 33% | 1022.3 hPa | 0 mm | - | - | - |
| 1777829489 | 20.56° C | 35% | 1022.4 hPa | 0 mm | - | - | - |
| 1777829186 | 20.56° C | 35% | 1022.5 hPa | 0 mm | - | - | - |
| 1777828884 | 20.56° C | 37% | 1022.5 hPa | 0 mm | - | - | - |
| 1777828580 | 20.56° C | 35% | 1022.6 hPa | 0 mm | - | - | - |
| 1777828277 | 20.56° C | 36% | 1022.7 hPa | 0 mm | - | - | - |
| 1777827974 | 20.56° C | 37% | 1022.6 hPa | 0 mm | - | - | - |
| 1777827671 | 20° C | 37% | 1022.8 hPa | 0 mm | - | - | - |
| 1777827368 | 19.44° C | 39% | 1022.7 hPa | 0 mm | - | - | - |
| 1777827064 | 20° C | 39% | 1023.1 hPa | 0 mm | - | - | - |
| 1777826761 | 20° C | 40% | 1023.1 hPa | 0 mm | - | - | - |
| 1777826458 | 20° C | 39% | 1023 hPa | 0 mm | - | - | - |
| 1777826155 | 20° C | 39% | 1023.1 hPa | 0 mm | - | - | - |
| 1777825852 | 20° C | 39% | 1023.3 hPa | 0 mm | - | - | - |
| 1777825549 | 20° C | 41% | 1023.1 hPa | 0 mm | - | - | - |
| 1777825247 | 19.44° C | 41% | 1023.3 hPa | 0 mm | - | - | - |
| 1777824943 | 19.44° C | 41% | 1023.2 hPa | 0 mm | - | - | - |
| 1777824639 | 18.89° C | 43% | 1023.3 hPa | 0 mm | - | - | - |
| 1777824337 | 18.33° C | 44% | 1023.2 hPa | 0 mm | - | - | - |
| 1777824032 | 18.89° C | 42% | 1023.4 hPa | 0 mm | - | - | - |
| 1777823729 | 18.33° C | 46% | 1023.5 hPa | 0 mm | - | - | - |
* Rain latest hour (hover to see other rain measurements)
** Current wind speed in m/s (hover to see current wind gust speed)